Погода в Уезде-у-Брна

Чехия     49°06′15″N   16°45′23″E
темп.,
°C
ветер,
м/с
пор.,
м/с
влажн.,
%
обл.,
%
осадки,
мм/ч
давл.,
гПа
погр.,
м
18 мая, ср
ср1823:00+13ссз258618 0.0 1022124
02:00+10с22905 0.0 102329
05:00+8с349110 0.0 102559
08:00+11св58696 0.0 1028370
11:00+15св564858 0.0 1028872
14:00+17св4533100 0.0 10281110
17:00+17всв333632 0.0 1027931
20:00+13ссв22555 0.0 102710
19 мая, чт
чт1923:00+9в21645 0.0 102810
02:00+8вюв22865 0.0 102815
05:00+7вюв22885 0.0 102814
08:00+12юв49575 0.0 1028414
11:00+17ююв68405 0.0 1028969
14:00+20ююв683526 0.0 10261151
17:00+21ююв57445 0.0 10241049
20:00+15вюв336656 0.0 102433
20 мая, пт
пт2023:00+11в2271100 0.0 102412
02:00+11вюв2273100 0.0 102413
05:00+10юв1179100 0.0 102510
08:00+14ююв2368100 0.0 1025250
11:00+18ююз22625 0.1 1024431
14:00+24юз22615 0.1 1022695
17:00+26ююз33585 0.1 1020750
20:00+22ююв3480100 0.2 101957
21 мая, сб
сб2123:00+18вюв2289100 0.7 101813
02:00+16юв2291100 0.7 101618
05:00+15юв129399 0.0 101512
08:00+19юз368320 0.4 1014263
11:00+25з1016605 1.1 10151977
14:00+23зсз9144376 1.2 10172330
17:00+21сз8134824 0.0 10171821
20:00+16с3667100 0.0 1019115
22 мая, вс
вс2223:00+13з226882 0.0 102033
02:00+10з22745 0.0 102021
05:00+9зсз22845 0.0 101927
08:00+14сз610645 0.0 1019856
11:00+18сз79435 0.0 10181451
14:00+20сз78371 0.0 10171744
17:00+20ссз573915 0.0 10161724
20:00+15с356412 0.0 101786